| time (UTC) | temp F | wind direction | speed knots | gust knots | rain 1hr in | rain 24hr in | rain mn in | humidity % | barometer mb |
| 20260504081545 | 60 | 4 | 0.0 | 2.6 | 0.00 | 0.00 | 0.00 | 60 | 1009.7 |
| 20260504044528 | 67 | 295 | 0.0 | 2.6 | 0.00 | 0.00 | 0.00 | 47 | 1010.1 |
| 20260504043026 | 66 | 283 | 0.0 | 0.0 | 0.00 | 0.00 | 0.00 | 47 | 1010.1 |
| 20260504041525 | 65 | 276 | 0.0 | 1.7 | 0.00 | 0.00 | 0.00 | 53 | 1010.1 |
| 20260504040029 | 65 | 343 | 0.0 | 0.0 | 0.00 | 0.00 | 0.00 | 61 | 1010.1 |
| 20260504034538 | 66 | 56 | 0.0 | 0.0 | 0.00 | 0.00 | 0.00 | 56 | 1010.1 |
| 20260504033029 | 66 | 272 | 0.0 | 0.0 | 0.00 | 0.00 | 0.00 | 54 | 1010.0 |
| 20260504031524 | 68 | 352 | 0.0 | 0.0 | 0.00 | 0.00 | 0.00 | 53 | 1010.0 |
| 20260504030035 | 70 | 353 | 0.0 | 0.0 | 0.00 | 0.00 | 0.00 | 47 | 1010.1 |
| 20260504024523 | 71 | 353 | 0.0 | 0.0 | 0.00 | 0.00 | 0.00 | 42 | 1010.1 |
| 20260504023021 | 73 | 353 | 0.0 | 0.0 | 0.00 | 0.00 | 0.00 | 40 | 1010.1 |
| 20260504021521 | 75 | 353 | 0.0 | 0.9 | 0.00 | 0.00 | 0.00 | 40 | 1010.1 |
| 20260504020020 | 77 | 276 | 0.0 | 0.0 | 0.00 | 0.00 | 0.00 | 38 | 1010.2 |
| 20260504014520 | 78 | 283 | 0.0 | 0.0 | 0.00 | 0.00 | 0.00 | 36 | 1010.2 |
| 20260504013015 | 79 | 283 | 0.0 | 0.0 | 0.00 | 0.00 | 0.00 | 37 | 1010.2 |
| 20260504011514 | 80 | 151 | 0.0 | 0.0 | 0.00 | 0.00 | 0.00 | 38 | 1010.4 |
| 20260504010011 | 81 | 82 | 0.0 | 0.0 | 0.00 | 0.00 | 0.00 | 35 | 1010.4 |
| 20260504004509 | 82 | 120 | 0.0 | 0.9 | 0.00 | 0.00 | 0.00 | 35 | 1010.6 |
| 20260504003007 | 83 | 120 | 0.0 | 3.5 | 0.00 | 0.00 | 0.00 | 33 | 1010.8 |
| 20260504001506 | 83 | 120 | 0.0 | 3.5 | 0.00 | 0.00 | 0.00 | 34 | 1010.9 |
| 20260504000005 | 84 | 185 | 0.0 | 4.3 | 0.00 | 0.00 | 0.00 | 33 | 1011.1 |
| 20260503234503 | 83 | 148 | 0.0 | 3.5 | 0.00 | 0.00 | 0.00 | 32 | 1011.3 |
| 20260503233001 | 83 | 110 | 1.7 | 6.1 | 0.00 | 0.00 | 0.00 | 30 | 1011.3 |
| 20260503231600 | 83 | 113 | 0.0 | 4.3 | 0.00 | 0.00 | 0.00 | 32 | 1011.5 |
| 20260503230100 | 84 | 126 | 0.0 | 3.5 | 0.00 | 0.00 | 0.00 | 34 | 1011.7 |
| 20260503224557 | 84 | 125 | 0.0 | 3.5 | 0.00 | 0.00 | 0.00 | 34 | 1011.8 |
| 20260503223056 | 84 | 134 | 0.0 | 3.5 | 0.00 | 0.00 | 0.00 | 33 | 1012.0 |
| 20260503221553 | 84 | 104 | 0.0 | 4.3 | 0.00 | 0.00 | 0.00 | 34 | 1012.2 |
| 20260503220052 | 84 | 119 | 0.0 | 7.0 | 0.00 | 0.00 | 0.00 | 34 | 1012.4 |
| 20260503214555 | 84 | 108 | 0.0 | 0.9 | 0.00 | 0.00 | 0.00 | 35 | 1012.5 |
| 20260503213117 | 83 | 108 | 0.0 | 1.7 | 0.00 | 0.00 | 0.00 | 36 | 1012.6 |
| 20260503211613 | 82 | 134 | 0.0 | 7.8 | 0.00 | 0.00 | 0.00 | 36 | 1012.8 |
| 20260503210043 | 82 | 113 | 0.0 | 2.6 | 0.00 | 0.00 | 0.00 | 36 | 1012.9 |
| 20260503204557 | 82 | 124 | 0.0 | 3.5 | 0.00 | 0.00 | 0.00 | 37 | 1013.1 |
| 20260503203040 | 80 | 114 | 0.0 | 6.1 | 0.00 | 0.00 | 0.00 | 42 | 1013.3 |
| 20260503201538 | 79 | 184 | 1.7 | 7.8 | 0.00 | 0.00 | 0.00 | 43 | 1013.4 |
| 20260503200033 | 79 | 199 | 0.9 | 5.2 | 0.00 | 0.00 | 0.00 | 43 | 1013.6 |
| 20260503194530 | 78 | 211 | 0.0 | 4.3 | 0.00 | 0.00 | 0.00 | 44 | 1013.8 |
| 20260503193029 | 77 | 131 | 0.9 | 5.2 | 0.00 | 0.00 | 0.00 | 47 | 1014.0 |
| 20260503191526 | 78 | 103 | 0.0 | 5.2 | 0.00 | 0.00 | 0.00 | 49 | 1014.1 |
| 20260503190029 | 76 | 126 | 0.9 | 5.2 | 0.00 | 0.00 | 0.00 | 48 | 1014.2 |
| 20260503184527 | 76 | 124 | 2.6 | 6.1 | 0.00 | 0.00 | 0.00 | 48 | 1014.3 |
| 20260503183020 | 76 | 103 | 0.0 | 5.2 | 0.00 | 0.00 | 0.00 | 48 | 1014.4 |
| 20260503181518 | 75 | 166 | 0.0 | 7.8 | 0.00 | 0.00 | 0.00 | 52 | 1014.4 |
| 20260503180026 | 74 | 155 | 1.7 | 5.2 | 0.00 | 0.00 | 0.00 | 49 | 1014.4 |
| 20260503174520 | 74 | 124 | 0.0 | 5.2 | 0.00 | 0.00 | 0.00 | 51 | 1014.6 |
| 20260503173015 | 74 | 127 | 0.9 | 4.3 | 0.00 | 0.00 | 0.00 | 48 | 1014.6 |
| 20260503171517 | 74 | 121 | 0.0 | 0.0 | 0.00 | 0.00 | 0.00 | 47 | 1014.7 |